Weather in Zeleny

Russia / Kamchatka Krai     53°16′37″N   158°10′57″E
temp.,
°C
wind,
m/s
gust,
m/s
humid.,
%
clouds,
%
prec.,
mm/h
press.,
hPa
HPBL,
m
29 july, thu
thu2900:00+17w3381100 0.0 100533
03:00+16w2288100 0.0 100520
06:00+14wnw3390100 0.0 100618
09:00+19wnw2274100 0.0 1007316
12:00+22sse2258100 0.0 1006825
15:00+22se3261100 0.0 1006634
18:00+19se4474100 0.0 1006341
21:00+15sse228799 0.1 100769
30 july, fri
fri3000:00+15se1189100 0.1 100846
03:00+15nne1191100 0.1 100736
06:00+15sse1192100 0.1 100626
09:00+17nnw118799 0.0 1006185
12:00+19sse1180100 0.1 1005480
15:00+21ssw1275100 0.0 1003794
18:00+20sse2180100 0.0 1002361
21:00+18ssw1290100 0.1 100223
31 july, sat
sat3100:00+17wsw2293100 0.3 100240
03:00+16w2295100 0.0 100174
06:00+16wsw2295100 0.7 100142
09:00+13sse4599100 6.4 1004298
12:00+11s2395100 16.4 1008263
15:00+12sse2390100 0.2 1008341
18:00+12sse2391100 0.2 1008326
21:00+11se2293100 0.1 1010128
1 august, sun
sun100:00+11sse1294100 0.2 101085
03:00+10se0093100 0.0 101023
06:00+11nnw119199 0.0 101037
09:00+12sw018446 0.0 1010345
12:00+16nnw117196 0.0 1010921
15:00+17sw116889 0.0 1010612
18:00+18sse336754 0.0 1010789
21:00+13sse3383100 0.0 101129
2 august, mon
mon200:00+11wsw118799 0.0 101210
03:00+11wnw2291100 0.0 101115
06:00+12wnw2288100 0.0 101125
09:00+13w2289100 0.1 101264
12:00+14wnw2285100 0.3 1012189
15:00+17w336174 0.0 1010832
18:00+18w335966 0.0 1009958
21:00+13w337498 0.0 101023